Location: Burgerwiesen
(48.6500°N, 15.6167°E)
Time: 23:05:05
(UTC+00:00)

STARLINK-1243 - Pass Details

Date: 09 April 2020
Orbit: 549 x 550 km, 53.0° (Epoch: 03 June)

Event Time Altitude Azimuth Distance (km) Brightness Sun altitude
Rises 19:18:47 0° 295° (WNW) 2,730 9.0 -15.7°
Reaches altitude 10° 19:21:02 10° 295° (WNW) 1,833 7.6 -16.0°
Maximum altitude 19:25:12 86° 207° (SSW) 559 3.5 -16.6°
Enters shadow 19:26:52 36° 120° (ESE) 891 4.1 -16.8°
